Regional Weather Roundup
Issued by NWS Newport/Morehead, NC

Current Version | Previous Version | Graphics & Text | Print | Product List | Glossary On
Versions: 1 2 3 4 5 6 7 8 9 10 11 12 13 14 15 16 17 18 19 20 21 22 23 24 25 26 27 28 29 30 31 32 33 34 35 36 37 38 39 40 41 42 43 44 45 46 47 48 49 50
000 ASUS42 KMHX 031212 RWRMHX WEATHER ROUNDUP FOR EASTERN NORTH CAROLINA NATIONAL WEATHER SERVICE NEWPORT/MOREHEAD CITY NC 700 AM EST TUE MAR 03 2015 NOTE: "FAIR" INDICATES FEW OR NO CLOUDS BELOW 12,000 FEET WITH NO SIGNIFICANT WEATHER AND/OR OBSTRUCTIONS TO VISIBILITY NCZ015>017-031-032-045>047-102-103-031300- NORTH COAST CITY SKY/WX TMP DP RH WIND PRES REMARKS EDENTON PTCLDY 31 25 81 CALM 30.41F ELIZABETH CITY MOCLDY 33 25 72 N5 30.41R KITTY HAWK MOSUNNY 36 29 76 N5 30.39R MANTEO PTCLDY 36 28 75 N7 30.40R $$ NCZ045>047-081-094-103-104-031300- CENTRAL COAST CITY SKY/WX TMP DP RH WIND PRES REMARKS FRISCO MOCLDY 39 33 79 N7 30.38R SWANQUARTER N/A 37 N/A N/A NE6G14 30.36S $$ NCZ095-097-098-100-101-031300- SOUTHERN COAST CITY SKY/WX TMP DP RH WIND PRES REMARKS BEAUFORT CLOUDY 39 28 64 NE12G18 30.35S CEDAR ISLAND N/A 39 N/A N/A VRB13G18 30.41R JACKSONVILLE NOT AVBL PINEY ISLAND N/A N/A N/A N/A MISG 30.36F WILMINGTON LGT RAIN 41 27 57 NE6 30.35R $$ NCZ011>013-027>030-043-044-078>080-089-090>093-098-031300- COASTAL PLAIN CITY SKY/WX TMP DP RH WIND PRES REMARKS AHOSKIE PTCLDY 29 22 74 CALM 30.45R CLINTON CLOUDY 40 25 54 E5 30.38R ELIZABETHTOWN CLOUDY 41 26 54 E3 30.36R GOLDSBORO CLOUDY 38 31 77 E10 30.37S GREENVILLE CLOUDY 36 27 69 E6 30.40S HAVELOCK CLOUDY 40 24 53 NE9 30.38R KENANSVILLE CLOUDY 39 23 53 E5 30.39R KINSTON CLOUDY 37 23 56 NE8 30.39S NEW BERN CLOUDY 39 22 50 NE9 30.38S RICHLANDS CLOUDY 39 25 56 NE9 30.38R ROCKY MOUNT CLOUDY 36 24 62 NE6 30.41R WASHINGTON CLOUDY 34 23 65 NE7 30.40R WHITEVILLE CLOUDY 41 26 55 NE9 30.34S $$ AMZ130-135-150-152-154-156-158-170-250-252-270-ANZ085-086-088-633-658-670-031300- MARINE OBSERVATIONS STATION/POSITION TIME TEMP WIND PRES WAVE SWELL AIR SEA DIR/SP/G HT/PER HT/PER (UTC) (F) (DEG/KT/KT) (MB) (FT/S) (FT/S) CHESAPEAKE LIGHT 1100 34 40/ 12/ 13 1030.1 64 E VA BEACH 1150 44 62 50/ 12/ 17 1028.3 5/ 7 5/ 7 DUCK 1112 36 35 1027.8 2 E DUCK 1111 34 N/A 4/ 6 10 NE DUCK 1122 37 N/A 5/ 6 OREGON INLET 1112 36 40 1028.6 HATTERAS CG 1112 40 43 1028.6 CAPE LOOKOUT 1200 43 30/ 17/ 19 1027.3 BEAUFORT LAB 1112 39 44 1026.9 27 SE WRIGHTSVLE NOT AVBL 5 SE WRIGHTSVLE NOT AVBL 225 S CAPE HAT 1150 65 73 70/ 17/ 21 1025.1 7/ 6 3/ 9 41 SE CHARLESTON 1150 67 69 80/ 14/ 16 1023.5 4/ 9 3/ 9 $$

USA.gov is the U.S. government's official web portal to all federal, state and local government web resources and services.